Location: Banksville Park
(38.5557°N, 75.1182°W)
Time: 18:54:53
(UTC+00:00)

SAR-Lupe-1 - Pass Details

Date: 18 January 2021
Orbit: 482 x 484 km, 98.2° (Epoch: 05 March)

Event Time Altitude Azimuth Distance (km) Brightness Sun altitude
Rises 11:11:33 0° 187° (S) 2,534 7.8 -12.5°
Reaches altitude 10° 11:13:46 10° 198° (SSW) 1,659 6.8 -12.1°
Maximum altitude 11:16:57 31° 262° (W) 875 4.9 -11.5°
Enters shadow 11:20:11 10° 326° (NW) 1,670 6.3 -10.9°
